User: anonymous
Location: NC_16_and_73
(35.4490°N, 81.0150°W)
Time: 08:26:45
(UTC-04:00)
Language:

Iridium 63 - Orbit

View from above orbital plane
View from above orbital plane
View from above satellite
View from above satellite

Ground track
Ground track

The orbit data is extracted from the following two-line orbital elements,

1 25286U 98021B   14274.50486561  .00000500  00000-0  17142-3 0    13
2 25286 086.3945 277.8646 0002452 104.7729 005.4580 14.34242575863166
Epoch (UTC): 01 October 2014 12:07:00
Eccentricity: 0.0002452
inclination: 86.3945°
perigee height: 776 km
apogee height: 779 km
right ascension of ascending node: 277.8646°
argument of perigee: 104.7729°
revolutions per day: 14.34242575
mean anomaly at epoch: 5.4580°
orbit number at epoch: 86316

The dashed part of the orbit path shows where the satellite is in the earth's shadow,  

DLR